Abilene, TX

6:14 PM CST on January 19, 2017 (GMT -0600)
Abilene Regional

Weather History for KABI - May, 2013

Change the Weather History Date:

Friday, May 24, 2013

  Actual Average Record
Temperature  
Mean Temperature 75 °F 75 °F  
Max Temperature 82 °F 86 °F 109 °F (2000)
Min Temperature 68 °F 64 °F 48 °F (1930)
Degree Days  
Heating Degree Days 0 0  
Month to date heating degree days 50 13  
Since 1 July heating degree days 2301 2555  
Cooling Degree Days 10 10  
Month to date cooling degree days 191 187  
Year to date cooling degree days 367 320  
Growing Degree Days 22 (Base 50)    
Moisture  
Dew Point 60 °F    
Average Humidity 65    
Maximum Humidity 84    
Minimum Humidity 46    
Precipitation  
Precipitation 0.00 in 0.12 in 3.25 in (1933)
Month to date precipitation 1.98 2.30  
Year to date precipitation 6.20 8.06  
Sea Level Pressure  
Sea Level Pressure 30.00 in    
Wind  
Wind Speed 14 mph (SE)    
Max Wind Speed 28 mph    
Max Gust Speed 37 mph    
Visibility 10 miles    
Events      
T = Trace of Precipitation, MM = Missing Value Source: NWS Daily Summary

Daily Weather History Graph

Daily Weather History Graph

Search for Another Location

Airport or City:

Trip Planner

Search our weather history database for the weather conditions in past years. The results will help you decide how hot, cold, wet, or windy it might be!

Date:

Astronomy

May. 24, 2013 Rise Set
Actual Time 6:35 AM CDT 8:36 PM CDT
Civil Twilight 6:07 AM CDT 9:03 PM CDT
Nautical Twilight 5:34 AM CDT 9:37 PM CDT
Astronomical Twilight 4:58 AM CDT 10:13 PM CDT
Moon 8:21 PM CDT (5/24) 6:05 AM CDT (5/24)
Length of Visible Light 14h 56m
Length of Day
14h 01m
Full, 100% of the Moon is Illuminated
May 24
Full
May 24
Full
May 31
Last Quarter
Jun 8
New
Jun 16
First Quarter

Hourly Weather History & Observations

Time (CDT) Temp. Heat Index Dew Point Humidity Pressure Visibility Wind Dir Wind Speed Gust Speed Precip Events Conditions
12:52 AM 75.9 °F - 53.1 °F 45% 29.92 in 10.0 mi WSW 19.6 mph 26.5 mph N/A   Clear
1:52 AM 75.0 °F - 55.9 °F 51% 29.92 in 10.0 mi SSW 18.4 mph - N/A   Clear
2:52 AM 73.0 °F - 57.0 °F 57% 29.94 in 10.0 mi WSW 19.6 mph 27.6 mph N/A   Clear
3:52 AM 71.1 °F - 57.0 °F 61% 29.91 in 10.0 mi SSW 18.4 mph 26.5 mph N/A   Clear
4:52 AM 72.0 °F - 53.1 °F 51% 29.89 in 10.0 mi South 15.0 mph 25.3 mph N/A   Clear
5:52 AM 69.1 °F - 57.9 °F 68% 29.92 in 10.0 mi WSW 5.8 mph - N/A   Clear
6:52 AM 69.1 °F - 57.9 °F 68% 30.01 in 10.0 mi East 4.6 mph - N/A   Clear
7:52 AM 70.0 °F - 57.9 °F 65% 30.04 in 10.0 mi NE 3.5 mph - N/A   Clear
8:52 AM 71.1 °F - 61.0 °F 70% 30.06 in 10.0 mi East 6.9 mph - N/A   Clear
9:52 AM 75.9 °F - 61.0 °F 60% 30.06 in 10.0 mi ESE 8.1 mph - N/A   Clear
10:52 AM 79.0 °F - 61.0 °F 54% 30.06 in 10.0 mi SSE 9.2 mph - N/A   Clear
11:52 AM 81.0 °F 81.7 °F 61.0 °F 50% 30.05 in 10.0 mi ESE 15.0 mph - N/A   Clear
12:52 PM 81.0 °F 81.3 °F 59.0 °F 47% 30.06 in 10.0 mi SSE 12.7 mph - N/A   Clear
1:52 PM 80.1 °F 81.2 °F 62.1 °F 54% 30.02 in 10.0 mi SSE 11.5 mph - N/A   Clear
2:52 PM 82.0 °F 83.8 °F 64.9 °F 56% 30.02 in 10.0 mi SE 16.1 mph - N/A   Partly Cloudy
3:52 PM 80.1 °F 81.7 °F 64.0 °F 58% 30.01 in 10.0 mi ESE 20.7 mph - N/A   Mostly Cloudy
4:52 PM 81.0 °F 81.7 °F 61.0 °F 50% 29.99 in 10.0 mi ESE 10.4 mph 20.7 mph N/A   Clear
5:52 PM 79.0 °F - 66.0 °F 64% 30.01 in 10.0 mi East 15.0 mph - N/A   Mostly Cloudy
6:52 PM 75.0 °F - 64.9 °F 71% 30.01 in 10.0 mi ESE 17.3 mph - N/A   Overcast
7:52 PM 73.0 °F - 62.1 °F 68% 30.03 in 10.0 mi ESE 17.3 mph - N/A   Mostly Cloudy
8:52 PM 71.1 °F - 63.0 °F 75% 30.05 in 10.0 mi SE 20.7 mph - N/A   Overcast
9:52 PM 70.0 °F - 64.0 °F 81% 30.05 in 10.0 mi SE 17.3 mph - N/A   Mostly Cloudy
10:52 PM 70.0 °F - 63.0 °F 78% 30.05 in 10.0 mi SE 17.3 mph - N/A   Scattered Clouds
11:52 PM 69.1 °F - 62.1 °F 78% 30.05 in 10.0 mi SSE 10.4 mph - N/A   Mostly Cloudy